User: anonymous   Login
Location: Theydon Bois
(51.6750°N, 0.1050°E)
Time: 03:53:50
(UTC+01:00)
Language:

BREEZE M DEB (TANK) - Orbit

View from above orbital plane
View from above orbital plane
View from above satellite
View from above satellite

Ground track
Ground track

The orbit data is extracted from the following two-line orbital elements,

1 33454U 08063B   18114.05576860  .00000190  00000-0  55506-4 0  9993
2 33454  49.4846  66.4965 5409570 235.4593  61.2794  4.90546091165507
Epoch (UTC): 24 April 2018 01:20:18
Eccentricity: 0.5409570
inclination: 49.4846°
perigee height: 338 km
apogee height: 16168 km
right ascension of ascending node: 66.4965°
argument of perigee: 235.4593°
revolutions per day: 4.90546091
mean anomaly at epoch: 61.2794°
orbit number at epoch: 16550

The dashed part of the orbit path shows where the satellite is in the earth's shadow,  

DLR